Weather History for Baker, MT

Change the Weather History Date:

Thursday, February 2, 2012

  Actual Average Record
Temperature  
Mean Temperature 30 °F -  
Max Temperature 42 °F 29 °F 48 °F (2005)
Min Temperature 19 °F -8 °F -14 °F (2007)
Degree Days  
Heating Degree Days 34    
Moisture  
Dew Point 23 °F    
Average Humidity 78    
Maximum Humidity 92    
Minimum Humidity 51    
Precipitation  
Precipitation 0.00 in - - ()
Sea Level Pressure  
Sea Level Pressure 30.26 in    
Wind  
Wind Speed 5 mph (WNW)    
Max Wind Speed 16 mph    
Max Gust Speed 22 mph    
Visibility 10 miles    
Events      
Averages and records for this station are not official NWS values.
T = Trace of Precipitation, MM = Missing Value Source: NWS Daily Summary

Daily Weather History Graph

Daily Weather History Graph

Search for Another Location

Airport:

Trip Planner

Search our weather history database for the weather conditions in past years. The results will help you decide how hot, cold, wet, or windy it might be!

Date:

Astronomy

Feb. 02, 2012 Rise Set
Actual Time 7:19 AM MST 5:02 PM MST
Civil Twilight 6:47 AM MST 5:34 PM MST
Nautical Twilight 6:11 AM MST 6:10 PM MST
Astronomical Twilight 5:36 AM MST 6:45 PM MST
Moon 12:08 PM MST (2/2) 3:10 AM MST (2/2)
Length of Visible Light 10h 47m
Length of Day
9h 42m
Waxing Gibbous, 74% of the Moon is Illuminated
Feb 2
Waxing Gibbous
Feb 7
Full
Feb 14
Last Quarter
Feb 21
New
Feb 29
First Quarter

Hourly Weather History & Observations

Time (MST) Temp. Windchill Dew Point Humidity Pressure Visibility Wind Dir Wind Speed Gust Speed Precip Events Conditions
12:51 AM 24.1 °F - 19.9 °F 84% 30.10 in 10.0 mi Calm Calm - N/A   Clear
1:51 AM 21.9 °F 14.5 °F 19.0 °F 89% 30.11 in 10.0 mi SE 5.8 mph - N/A   Clear
2:51 AM 21.9 °F 15.7 °F 19.0 °F 89% 30.12 in 10.0 mi SE 4.6 mph - N/A   Clear
3:51 AM 21.0 °F - 18.0 °F 88% 30.13 in 10.0 mi Calm Calm - N/A   Clear
4:51 AM 21.0 °F 16.2 °F 18.0 °F 88% 30.14 in 10.0 mi ESE 3.5 mph - N/A   Clear
6:51 AM 19.9 °F - 16.0 °F 85% 30.18 in 10.0 mi Calm Calm - N/A   Clear
7:51 AM 19.9 °F - 17.1 °F 89% 30.20 in 10.0 mi Calm Calm - N/A   Clear
8:51 AM 26.1 °F - 21.9 °F 84% 30.21 in 10.0 mi Calm Calm - N/A   Partly Cloudy
9:51 AM 36.0 °F 29.6 °F 28.0 °F 73% 30.19 in 10.0 mi West 8.1 mph - N/A   Overcast
10:51 AM 37.0 °F 28.5 °F 25.0 °F 62% 30.21 in 10.0 mi WNW 13.8 mph - N/A   Partly Cloudy
11:51 AM 37.0 °F 29.8 °F 26.1 °F 65% 30.22 in 10.0 mi WNW 10.4 mph - N/A   Overcast
12:51 PM 41.0 °F 35.2 °F 25.0 °F 53% 30.22 in 10.0 mi NW 9.2 mph - N/A   Overcast
1:51 PM 42.1 °F 34.9 °F 25.0 °F 51% 30.23 in 10.0 mi NW 13.8 mph - N/A   Clear
2:51 PM 42.1 °F 34.2 °F 26.1 °F 53% 30.25 in 10.0 mi NW 16.1 mph 21.9 mph N/A   Clear
3:51 PM 39.9 °F 33.9 °F 27.0 °F 60% 30.28 in 10.0 mi NNW 9.2 mph - N/A   Mostly Cloudy
4:51 PM 37.0 °F 31.0 °F 27.0 °F 67% 30.31 in 10.0 mi NW 8.1 mph - N/A   Overcast
5:51 PM 34.0 °F 25.0 °F 28.9 °F 82% 30.35 in 10.0 mi NNW 12.7 mph - N/A   Overcast
6:19 PM 33.8 °F 26.4 °F 28.4 °F 81% 30.27 in 10.0 mi NW 9.2 mph - N/A   Overcast
6:51 PM 33.1 °F 26.1 °F 28.0 °F 82% 30.38 in 10.0 mi NW 8.1 mph - N/A   Overcast
7:19 PM 33.8 °F 28.6 °F 26.6 °F 75% 30.29 in 10.0 mi NW 5.8 mph - N/A   Overcast
7:51 PM 30.9 °F 23.5 °F 26.1 °F 82% 30.40 in 10.0 mi WNW 8.1 mph - N/A   Scattered Clouds
8:51 PM 27.0 °F 19.5 °F 24.1 °F 89% 30.42 in 10.0 mi West 6.9 mph - N/A   Clear
9:51 PM 25.0 °F 17.1 °F 21.9 °F 88% 30.42 in 10.0 mi West 6.9 mph - N/A   Clear
10:51 PM 23.0 °F 14.7 °F 21.0 °F 92% 30.44 in 10.0 mi WSW 6.9 mph - N/A   Clear
11:51 PM 23.0 °F 15.8 °F 19.9 °F 88% 30.46 in 10.0 mi WNW 5.8 mph - N/A   Clear